SCP
7 9 11 12 11 10 9 8 6 4 4 3 3 2 2 1 1 1 1 0 0 0 0 0 0 1 1 1 1 0 0 0 0 0 0 0 0 1 1 1 1 2 2
9 11 13 13 11 10 9 7 5 4 3 3 2 2 1 1 1 0 0 0 0 0 0 0 0 0 0 0 0 0 0 0 0 0 0 0 0 0 0 1 1 1 1
9 11 12 11 9 8 7 6 5 4 3 2 2 1 1 0 0 0 0 0 0 0 0 0 0 0 0 0 0 0 0 0 0 0 0 0 0 0 0 0 0 0 0
7 7 7 7 7 6 5 6 5 4 3 2 2 1 1 0 0 0 0 0 0 0 0 0 0 0 0 0 0 0 0 0 0 0 0 0 0 0 0 0 0 0 0
5 4 4 4 4 4 4 5 4 4 3 2 2 1 1 0 0 0 0 0 0 0 0 0 0 0 0 0 0 0 0 0 0 0 0 0 0 0 0 0 0 0 0
4 4 4 3 3 3 3 3 3 3 3 2 1 1 1 0 0 0 0 0 0 0 0 0 0 0 0 0 0 0 0 0 0 0 0 0 0 0 0 0 0 0 0
3 3 3 2 2 2 2 3 3 3 3 2 1 1 1 0 0 0 0 0 0 0 0 0 0 0 0 0 0 0 0 0 0 0 0 0 0 0 0 0 0 0 0
3 3 2 2 1 1 2 3 3 3 3 2 1 1 1 0 0 0 0 0 0 0 0 0 0 0 0 0 0 0 0 0 0 0 0 0 0 0 0 0 0 0 0
3 2 2 1 1 1 1 2 3 3 2 1 1 1 0 0 0 0 0 0 0 0 0 0 0 0 0 0 0 0 0 0 0 0 0 0 0 0 0 0 0 0 0
3 2 1 1 1 1 1 1 1 1 1 1 0 0 0 0 0 0 0 0 0 0 0 0 0 0 0 0 0 0 0 0 0 0 0 0 0 0 0 0 0 0 0
3 2 1 1 0 0 0 0 0 0 0 0 0 0 0 0 0 0 0 0 0 0 0 0 0 0 0 0 0 0 0 0 0 0 0 0 0 0 0 0 0 0 0
3 2 1 1 0 0 0 0 0 0 0 0 0 0 0 0 0 0 0 0 0 0 0 0 0 0 0 0 0 0 0 0 0 0 0 0 0 0 0 0 0 0 0
2 2 1 1 0 0 0 0 0 0 0 0 0 0 0 0 0 0 0 0 0 0 0 0 0 0 0 0 0 0 0 0 0 0 0 0 0 0 0 0 0 0 0
3 2 1 1 0 0 0 0 0 0 0 0 0 0 0 0 0 0 0 0 0 0 0 0 0 0 0 0 0 0 0 0 0 0 0 0 0 0 0 0 0 0 0
3 2 1 1 0 0 0 0 0 0 0 0 0 0 0 0 0 0 0 0 0 0 0 0 0 0 0 0 0 0 0 0 0 0 0 0 0 0 0 0 0 0 0
3 2 1 0 0 0 0 0 0 0 0 0 0 0 0 0 0 0 0 0 0 0 0 0 0 0 0 0 0 0 0 0 0 0 0 0 0 0 0 0 0 0 0
2 2 1 0 0 0 0 0 0 0 0 0 0 0 0 0 0 0 0 0 0 0 0 0 0 0 0 0 0 0 0 0 0 0 0 0 0 0 0 0 0 0 0
2 1 0 0 0 0 0 0 0 0 0 0 0 0 0 0 0 0 0 0 0 0 0 0 0 0 0 0 0 0 0 0 0 0 0 0 0 0 0 0 0 0 0
1 0 0 0 0 0 0 0 0 0 0 0 0 0 0 0 0 0 0 0 0 0 0 0 0 0 0 0 0 0 0 0 0 0 0 0 0 0 0 0 0 0 0
0 0 0 0 0 0 0 0 0 0 0 0 0 0 0 0 0 0 0 0 0 0 0 0 0 0 0 0 0 0 0 0 0 0 0 0 0 0 0 0 0 0 0
0 0 0 0 0 0 0 0 0 0 0 0 0 0 0 0 0 0 0 0 0 0 0 0 0 0 0 0 0 0 0 0 0 0 0 0 0 0 0 0 0 0 0
0 0 0 0 0 0 0 0 0 0 0 0 0 0 0 0 0 0 0 0 0 0 0 0 0 0 0 0 0 0 0 0 0 0 0 0 0 0 0 0 0 0 0
0 0 0 0 0 0 0 0 0 0 0 0 0 0 0 0 0 0 0 0 0 0 0 0 0 0 0 0 0 0 0 0 0 0 0 0 0 0 0 0 0 0 0
0 0 0 0 0 0 0 0 0 0 0 0 0 0 0 0 0 0 0 0 0 0 0 0 0 0 0 0 0 0 0 0 0 0 0 0 0 0 0 0 0 0 0
0 0 0 0 0 0 0 0 0 0 0 0 0 0 0 0 0 0 0 0 0 0 0 0 0 0 0 0 0 0 0 0 0 0 0 0 0 0 0 0 0 0 0
0 0 0 0 0 0 0 0 0 0 0 0 0 0 0 0 0 0 0 0 0 0 0 0 0 0 0 0 0 0 0 0 0 0 0 0 0 0 0 0 0 0 0
Wind_Speed
10 10 10 10 9 9 10 10 10 10 8 7 7 6 6 6 6 7 8 8 7 7 5 4 4 3 3 4 4 4 5 5 4 7 9 9 11 10 7 7 7 8 9
11 10 10 10 10 10 10 10 10 10 8 6 5 5 7 6 6 6 7 7 7 6 5 4 3 3 2 2 3 3 5 5 4 6 9 10 9 6 5 5 7 9 9
14 13 11 11 10 10 10 9 10 9 8 9 7 8 7 6 6 5 5 6 6 6 5 4 3 2 3 2 3 4 5 6 6 5 6 8 8 9 7 7 7 9 10
14 13 13 12 11 10 10 10 10 10 9 9 8 8 5 5 5 4 5 5 5 4 4 3 3 3 4 3 5 4 6 6 7 5 4 6 9 8 8 7 8 11 11
13 13 13 13 12 11 10 10 11 10 9 7 7 6 6 6 5 4 5 3 3 3 3 3 3 3 3 4 5 4 5 5 6 6 6 7 7 10 11 12 10 11 11
13 13 13 13 12 11 11 11 11 10 9 8 8 7 8 7 6 4 3 1 2 1 3 3 3 3 3 3 3 4 3 4 5 6 7 7 8 9 10 12 12 12 11
15 15 15 14 13 13 12 11 12 11 9 9 9 9 8 7 6 3 3 1 1 1 2 3 3 3 3 3 4 4 4 5 5 7 7 7 8 9 10 12 13 14 12
16 16 16 16 15 14 12 11 11 11 10 9 9 8 6 4 5 3 2 2 2 3 3 3 4 4 4 5 4 6 5 5 7 8 8 8 9 9 10 11 13 14 13
16 16 16 16 15 14 13 12 12 10 9 9 9 8 6 5 5 3 0 1 1 2 3 4 5 5 5 6 6 6 7 7 9 10 10 10 10 10 10 11 12 14 15
16 16 16 16 14 13 12 11 11 11 10 9 7 7 6 5 3 1 2 2 3 3 5 6 6 6 7 7 8 9 8 9 10 9 11 11 11 10 11 12 12 12 13
18 16 15 15 15 14 12 11 11 11 9 9 7 6 5 3 1 0 1 2 4 5 6 7 7 8 9 9 9 11 11 12 12 12 13 13 14 12 11 12 12 12 11
17 17 16 16 15 14 13 11 11 10 9 8 7 6 4 2 1 2 3 4 5 6 7 8 9 10 10 10 11 12 13 13 14 14 14 15 13 15 13 12 13 12 12
16 16 15 15 15 13 12 11 10 9 8 7 6 4 2 1 2 3 4 6 7 8 9 9 10 11 11 12 12 12 13 13 14 14 15 15 15 15 13 13 12 11 11
15 15 15 14 13 12 11 10 9 8 7 5 4 2 1 2 3 4 6 7 8 9 10 11 11 12 12 12 12 12 13 14 14 14 15 15 15 15 14 12 13 12 12
15 15 14 13 12 11 9 9 8 6 5 3 2 0 2 3 4 6 7 8 9 10 10 10 11 11 10 8 10 13 14 15 15 15 15 15 16 18 15 12 12 12 11
14 13 13 12 11 10 9 8 7 5 4 2 1 2 3 4 6 6 7 8 8 8 8 9 9 10 7 8 9 13 15 15 15 15 14 14 16 16 17 19 20 18 16
12 13 13 12 11 9 8 7 6 4 2 1 2 3 4 6 6 7 6 6 6 7 7 8 9 10 6 4 8 13 15 16 14 14 13 12 13 16 15 15 18 18 21
13 14 14 13 11 9 8 6 5 3 1 1 2 4 5 5 5 5 6 6 6 6 7 7 9 10 7 3 8 15 15 14 13 14 15 15 15 14 14 15 15 16 15
15 15 14 13 10 8 7 6 4 2 1 2 3 5 5 5 5 6 6 5 6 6 7 7 9 10 9 5 9 14 13 12 14 15 15 16 16 15 15 15 15 15 12
15 15 14 12 10 7 6 5 4 2 3 4 4 5 6 6 6 5 5 5 6 7 8 8 9 9 10 8 10 13 10 11 12 13 14 16 15 16 17 14 11 11 9
16 14 12 10 8 7 5 4 4 4 4 5 6 7 7 6 5 5 5 6 6 7 8 8 8 8 8 9 8 12 11 10 11 11 11 10 15 16 15 11 7 6 5
14 12 10 9 7 5 4 5 5 5 5 6 7 6 5 5 4 5 5 6 7 7 8 8 9 7 8 9 11 15 16 16 13 11 9 10 13 11 10 6 5 4 2
12 10 10 9 6 4 3 6 6 6 6 6 6 5 5 5 5 5 6 6 6 7 7 8 9 9 9 9 12 14 17 18 12 10 15 14 12 8 6 10 8 5 4
11 10 10 9 7 6 7 7 7 6 6 6 5 4 4 4 5 5 6 6 6 7 8 8 9 9 9 10 11 11 11 12 11 10 11 10 7 6 6 6 6 6 6
9 8 8 9 9 8 8 8 6 5 6 5 4 4 5 5 4 4 5 6 7 7 7 7 8 8 9 12 17 12 10 10 11 10 6 6 5 6 6 6 6 6 6
9 8 9 9 9 9 9 8 6 6 5 5 5 4 5 5 5 5 3 2 3 3 5 7 8 8 10 15 17 17 16 16 16 9 7 7 7 6 6 6 6 7 7
Wind_Direction
175 161 161 158 156 155 151 147 140 139 141 140 139 129 115 107 97 86 79 75 69 66 50 59 62 24 36 15 354 331 309 295 314 295 288 274 259 253 258 263 275 276 281
168 166 164 162 158 152 148 143 143 143 145 130 115 108 108 98 90 86 79 74 70 61 64 47 43 37 26 22 352 334 311 304 301 303 301 293 281 245 252 277 273 284 293
184 172 167 159 152 149 149 143 138 136 128 128 122 122 120 129 122 109 94 74 71 69 56 49 27 7 318 355 331 315 317 315 307 305 307 308 312 327 291 279 281 286 284
188 175 166 154 147 139 136 134 132 128 131 140 141 145 146 132 111 109 96 92 73 64 56 39 25 351 339 344 310 355 318 306 305 310 295 298 311 298 300 291 289 287 283
181 170 162 149 139 136 134 130 126 122 123 123 126 131 119 114 118 112 105 102 92 66 43 27 6 348 335 356 340 333 320 314 317 317 309 298 285 275 279 290 291 286 284
168 156 145 139 136 135 134 131 124 119 119 118 116 112 112 113 113 110 112 144 107 74 49 8 359 335 345 343 326 315 301 320 322 307 304 300 297 297 295 292 290 287 287
164 156 151 148 145 144 139 135 128 124 121 116 111 110 114 119 116 117 106 11 19 31 52 347 332 330 329 314 309 294 306 297 299 293 299 301 296 293 292 291 293 292 290
171 166 160 155 151 148 144 140 135 131 127 118 113 112 120 112 104 85 46 38 349 2 8 315 309 304 298 295 297 288 285 286 287 287 290 289 289 295 293 293 296 293 290
172 166 162 158 154 151 148 145 139 133 126 121 120 115 104 90 92 110 137 28 349 324 317 305 298 295 291 291 287 285 288 286 283 289 291 291 297 293 293 292 289 290 290
168 165 164 159 154 150 145 143 139 134 130 129 125 118 115 110 105 59 44 355 321 311 298 295 293 290 287 283 282 285 286 287 285 287 291 292 292 297 294 289 287 283 281
169 167 165 159 153 150 149 148 142 136 135 128 120 116 111 105 105 336 299 299 298 297 291 295 295 292 290 288 286 286 291 289 290 292 293 295 297 294 294 292 286 282 280
170 167 163 158 156 156 154 149 143 139 134 127 122 117 115 122 244 267 283 284 284 287 292 293 290 289 289 289 288 290 293 294 295 298 300 299 299 296 293 289 287 286 283
168 166 163 162 160 157 153 147 141 131 126 124 122 120 133 220 272 285 288 287 285 287 290 291 291 292 293 292 292 294 296 298 300 301 300 299 298 294 291 291 289 286 281
169 167 166 164 159 154 148 138 127 121 117 114 113 117 233 284 291 294 291 288 288 290 291 293 296 297 299 299 304 308 307 304 302 300 297 295 293 292 293 290 285 281 279
172 169 164 157 150 142 131 122 116 111 108 106 100 356 286 289 290 291 291 291 292 294 298 300 302 306 305 334 340 321 310 307 304 300 298 296 296 291 285 282 281 282 280
170 162 151 142 137 130 121 113 106 100 94 82 0 328 312 302 296 296 297 300 305 312 318 320 319 318 333 33 350 320 311 307 303 302 302 299 292 290 288 280 279 281 282
156 145 136 127 119 114 110 104 99 96 94 37 336 326 313 306 308 313 322 333 338 341 336 333 330 327 350 36 332 320 310 303 303 303 299 295 294 293 288 289 287 282 278
131 124 119 114 110 109 105 102 99 97 67 342 330 318 316 325 341 359 13 8 357 350 343 339 337 328 339 14 323 322 306 304 304 301 297 295 294 293 294 296 291 286 283
109 110 111 110 109 107 107 106 103 83 17 350 346 353 357 11 32 38 27 12 356 351 339 347 341 332 333 356 325 317 315 309 309 307 303 302 300 298 293 291 289 287 287
101 105 106 105 103 103 104 100 90 63 25 21 32 42 50 57 54 40 17 8 352 352 345 352 342 334 332 335 310 309 314 310 309 306 303 300 297 298 296 292 286 285 292
101 102 103 102 104 106 103 95 79 57 47 61 73 74 72 66 49 30 15 2 357 360 352 348 341 336 333 326 323 319 320 316 309 304 304 305 307 306 305 299 288 286 295
100 102 103 103 102 101 103 92 72 68 78 86 86 78 61 40 37 23 16 11 358 358 357 349 342 339 337 336 342 326 319 318 313 309 312 317 324 332 346 353 9 4 3
106 109 112 112 110 109 88 80 78 85 92 92 85 74 58 40 23 13 17 13 9 0 355 349 344 343 343 345 345 330 322 319 319 320 327 335 347 359 22 36 36 42 49
118 123 122 118 110 97 82 77 80 87 93 89 81 67 48 42 39 13 19 17 9 2 356 352 345 341 340 347 345 334 330 330 334 334 335 344 11 34 34 35 43 46 42
126 128 122 111 101 91 83 80 82 88 89 83 71 56 48 37 26 37 32 18 34 15 354 352 341 339 342 340 331 333 340 343 342 334 348 10 19 31 35 38 44 45 44
128 122 113 105 99 93 85 77 74 77 81 81 64 48 42 33 20 24 64 125 33 8 349 353 349 347 344 334 339 344 343 345 345 355 12 17 20 26 31 36 42 42 43